Tracking 35237 objects as of 4-Sep-2026
HD Live streaming from Space Station
objects crossing your sky now

STARLINK-35330

Track STARLINK-35330 now!
10-day predictions
STARLINK-35330 is classified as:


NORAD ID: 65791
Int'l Code: 2025-218A
Launch date: September 26, 2025
Source: United States (US)
Launch site: AIR FORCE EASTERN TEST RANGE (AFETR)
Your satellite tracking list
Your tracking list is empty




NASA's NSSDC Master Catalog

Two Line Element Set (TLE):
1 65791U 25218A   26247.25002315  .05987708  00000-0  18141+0 0  9993
2 65791  97.2847 104.7929 0000923 171.6611  63.7817 15.29007726  5709
Source of the keplerian elements: AFSPC